sat.trackr.live / text

‹ back to catalog

ONEWEB-0232

NORAD 48781 · 2021-045Q

PAYLOAD ACTIVE UNKNOWN

§ Identity

Operator
Country
UK
Launch date
2021-05-28
Launch site
VOSTO
Launch vehicle
Mass (kg)
RCS (m²)

Purposes: comms

External: N2YO · Heavens-Above · Gunter

§ Orbital elements

Epoch: 2026-09-19T18:15:54.588672Z

Period
109.46 min
Inclination
87.8993°
Eccentricity
0.0001971
Mean motion
13.15546874 rev/d
Perigee alt
1,200.3 km
Apogee alt
1,203.3 km
Semi-major
7,579.9 km
B*
8.6019e-6
RAAN
240.3347°
Arg perigee
83.9643°
Mean anomaly
276.1712°
Rev number
25,708

§ Raw data

ONEWEB-02321 48781U 21045Q   26262.76104848  .00000016  00000+0  86019-5 0  99912 48781  87.8993 240.3347 0001971  83.9643 276.1712 13.15546874257080

JSON: /api/v1/satellites/48781 · /tle

For live sub-satellite position, see the globe view (requires WebGL).

§ Visibility from observer

Set your observer location to see the next 7 days of passes ≥ 10°. The values pass through the URL so the page stays shareable.

No JS? Fill the form by hand. The geolocation button needs JavaScript.